Weather History for KLEB - May, 2013

Change the Weather History Date:

Wednesday, May 22, 2013

  Actual Average Record
Temperature  
Mean Temperature 63 °F -  
Max Temperature 73 °F 73 °F 92 °F (1977)
Min Temperature 53 °F 45 °F 28 °F (1936)
Degree Days  
Heating Degree Days 2    
Growing Degree Days 13 (Base 50)    
Moisture  
Dew Point 57 °F    
Average Humidity 88    
Maximum Humidity 96    
Minimum Humidity 70    
Precipitation  
Precipitation 0.38 in - - ()
Sea Level Pressure  
Sea Level Pressure 29.87 in    
Wind  
Wind Speed 4 mph (NE)    
Max Wind Speed 12 mph    
Max Gust Speed -    
Visibility 9 miles    
Events Rain , Thunderstorm    
Averages and records for this station are not official NWS values.
T = Trace of Precipitation, MM = Missing Value Source: NWS Daily Summary

Daily Weather History Graph

Daily Weather History Graph

Search for Another Location

Airport or City:

Trip Planner

Search our weather history database for the weather conditions in past years. The results will help you decide how hot, cold, wet, or windy it might be!

Date:

Astronomy

May. 22, 2013 Rise Set
Actual Time 5:17 AM EDT 8:15 PM EDT
Civil Twilight 4:43 AM EDT 8:49 PM EDT
Nautical Twilight 4:00 AM EDT 9:32 PM EDT
Astronomical Twilight 3:09 AM EDT 10:23 PM EDT
Moon 5:29 PM EDT (5/22) 3:25 AM EDT (5/22)
Length of Visible Light 16h 05m
Length of Day
14h 57m
Waxing Gibbous, 91% of the Moon is Illuminated
May 22
Waxing Gibbous
May 25
Full
May 31
Last Quarter
Jun 8
New
Jun 16
First Quarter

Hourly Weather History & Observations

Time (EDT) Temp. Dew Point Humidity Pressure Visibility Wind Dir Wind Speed Gust Speed Precip Events Conditions
12:04 AM 53.6 °F 51.8 °F 94% 29.90 in 10.0 mi NE 4.6 mph - 0.00 in Rain Light Rain
12:12 AM 53.6 °F 51.8 °F 94% 29.91 in 10.0 mi ENE 5.8 mph - 0.00 in   Mostly Cloudy
12:25 AM 53.6 °F 51.8 °F 94% 29.91 in 10.0 mi NE 5.8 mph - 0.00 in   Mostly Cloudy
12:53 AM 54.0 °F 50.0 °F 86% 29.89 in 10.0 mi Variable 3.5 mph - 0.00 in   Overcast
1:13 AM 53.6 °F 51.8 °F 94% 29.96 in 10.0 mi SSW 8.1 mph - N/A   Overcast
1:53 AM 54.0 °F 51.1 °F 90% 29.89 in 8.0 mi Calm Calm - 0.02 in Rain Light Rain
2:21 AM 53.6 °F 51.8 °F 94% 29.90 in 6.0 mi Calm Calm - 0.07 in Rain Light Rain
2:53 AM 53.1 °F 52.0 °F 96% 29.88 in 6.0 mi Calm Calm - 0.11 in Rain Light Rain
3:53 AM 53.1 °F 51.1 °F 93% 29.87 in 10.0 mi Calm Calm - 0.04 in   Overcast
4:53 AM 53.1 °F 52.0 °F 96% 29.87 in 10.0 mi Calm Calm - N/A   Overcast
5:53 AM 54.0 °F 52.0 °F 93% 29.88 in 10.0 mi Calm Calm - N/A   Overcast
6:53 AM 54.0 °F 52.0 °F 93% 29.88 in 10.0 mi Calm Calm - N/A   Overcast
7:53 AM 55.9 °F 53.1 °F 90% 29.88 in 10.0 mi Calm Calm - N/A   Overcast
8:14 AM 55.4 °F 53.6 °F 94% 29.89 in 10.0 mi NNE 4.6 mph - N/A   Overcast
8:53 AM 57.0 °F 54.0 °F 89% 29.88 in 10.0 mi NE 5.8 mph - N/A   Overcast
9:53 AM 57.9 °F 55.0 °F 90% 29.88 in 10.0 mi NE 4.6 mph - N/A   Overcast
10:10 AM 59.0 °F 55.4 °F 88% 29.89 in 10.0 mi NE 5.8 mph - N/A   Overcast
10:53 AM 61.0 °F 55.9 °F 83% 29.89 in 10.0 mi NE 5.8 mph - N/A   Overcast
11:53 AM 63.0 °F 57.0 °F 81% 29.89 in 10.0 mi Variable 4.6 mph - N/A   Overcast
12:15 PM 66.2 °F 59.0 °F 78% 29.89 in 10.0 mi NE 6.9 mph - N/A   Mostly Cloudy
12:30 PM 68.0 °F 60.8 °F 78% 29.88 in 10.0 mi NNE 8.1 mph - N/A   Scattered Clouds
12:53 PM 69.1 °F 59.0 °F 70% 29.86 in 10.0 mi North 5.8 mph - N/A   Clear
1:53 PM 70.0 °F 61.0 °F 73% 29.85 in 10.0 mi Calm Calm - N/A   Clear
2:53 PM 73.9 °F 64.0 °F 71% 29.83 in 10.0 mi Variable 3.5 mph - N/A   Mostly Cloudy
3:53 PM 70.0 °F 61.0 °F 73% 29.83 in 10.0 mi NE 11.5 mph - N/A   Mostly Cloudy
4:41 PM 69.8 °F 60.8 °F 73% 29.84 in 10.0 mi NE 3.5 mph - N/A Thunderstorm Mostly Cloudy
4:50 PM 66.2 °F 62.6 °F 88% 29.83 in 1.0 mi NE 9.2 mph - 0.11 in Rain Rain
4:53 PM 66.0 °F 62.1 °F 87% 29.82 in 1.0 mi ENE 8.1 mph - 0.11 in Rain Light Rain
4:56 PM 64.4 °F 62.6 °F 94% 29.83 in 3.0 mi ENE 8.1 mph - 0.00 in Rain Light Rain
5:10 PM 64.4 °F 62.6 °F 94% 29.84 in 3.0 mi NE 4.6 mph - 0.01 in Rain , Thunderstorm Light Thunderstorms and Rain
5:19 PM 64.4 °F 62.6 °F 94% 29.85 in 2.0 mi NE 5.8 mph - 0.06 in Rain Heavy Rain
5:41 PM 62.6 °F 60.8 °F 94% 29.84 in 5.0 mi NE 8.1 mph - 0.10 in Rain Light Rain
5:53 PM 64.0 °F 62.1 °F 93% 29.84 in 8.0 mi NE 5.8 mph - 0.10 in Rain Light Rain
6:04 PM 62.6 °F 60.8 °F 94% 29.85 in 9.0 mi NE 9.2 mph - 0.00 in   Mostly Cloudy
6:21 PM 64.4 °F 62.6 °F 94% 29.83 in 10.0 mi Calm Calm - 0.00 in   Overcast
6:30 PM 66.2 °F 62.6 °F 88% 29.83 in 10.0 mi NE 5.8 mph - 0.00 in   Mostly Cloudy
6:53 PM 66.0 °F 61.0 °F 84% 29.83 in 10.0 mi Calm Calm - 0.00 in   Partly Cloudy
7:49 PM 62.6 °F 59.0 °F 88% 29.87 in 10.0 mi Calm Calm - N/A   Mostly Cloudy
7:53 PM 63.0 °F 59.0 °F 87% 29.85 in 10.0 mi Variable 5.8 mph - N/A   Mostly Cloudy
8:53 PM 62.1 °F 59.0 °F 90% 29.86 in 10.0 mi Calm Calm - N/A   Overcast
9:53 PM 61.0 °F 57.0 °F 87% 29.86 in 10.0 mi Variable 4.6 mph - N/A   Overcast
10:53 PM 60.1 °F 55.9 °F 86% 29.86 in 10.0 mi ESE 4.6 mph - N/A   Overcast
11:35 PM 59.0 °F 55.4 °F 88% 29.86 in 10.0 mi Variable 5.8 mph - N/A   Overcast
11:53 PM 59.0 °F 55.0 °F 87% 29.84 in 10.0 mi Calm Calm - N/A   Overcast